This is the latest recevied weather packets stored in our database for station/object KE8DAF-15. If no packets are shown the sender has not sent any weather packets the latest 10 day(s).
| Time | Temp. | Humidity | Pressure | Rain* | Wind** | Luminosity | Snow |
|---|---|---|---|---|---|---|---|
| 1777841110 | 15.56° C | 59% | 990.9 hPa | 0 mm | - | - | - |
| 1777840810 | 16.11° C | 56% | 990.9 hPa | 0 mm | - | - | - |
| 1777840510 | 15.56° C | 59% | 990.7 hPa | 0 mm | - | - | - |
| 1777840210 | 15° C | 55% | 990.7 hPa | 0 mm | - | - | - |
| 1777839910 | 15° C | 58% | 990.9 hPa | 0 mm | - | - | - |
| 1777839610 | 15° C | 58% | 991 hPa | 0 mm | - | - | - |
| 1777839310 | 15° C | 59% | 991 hPa | 0 mm | - | - | - |
| 1777839010 | 15° C | 67% | 991.1 hPa | 0 mm | - | - | - |
| 1777838710 | 14.44° C | 65% | 991.2 hPa | 0 mm | - | - | - |
| 1777838410 | 13.89° C | 67% | 991.4 hPa | 0 mm | - | - | - |
| 1777838110 | 14.44° C | 66% | 991.5 hPa | 0 mm | - | - | - |
| 1777837810 | 13.89° C | 67% | 991.7 hPa | 0 mm | - | - | - |
| 1777837510 | 13.89° C | 68% | 991.7 hPa | 0 mm | - | - | - |
| 1777837210 | 13.89° C | 67% | 991.8 hPa | 0 mm | - | - | - |
| 1777836910 | 13.89° C | 67% | 991.9 hPa | 0 mm | - | - | - |
| 1777836610 | 13.89° C | 68% | 991.9 hPa | 0 mm | - | - | - |
| 1777836310 | 13.89° C | 68% | 992 hPa | 0 mm | - | - | - |
| 1777836010 | 13.33° C | 71% | 992.1 hPa | 0 mm | - | - | - |
| 1777835710 | 13.33° C | 70% | 992.3 hPa | 0 mm | - | - | - |
| 1777835410 | 13.33° C | 74% | 992.3 hPa | 0 mm | - | - | - |
| 1777835110 | 13.33° C | 73% | 992.3 hPa | 0 mm | - | - | - |
| 1777834810 | 13.33° C | 71% | 992.4 hPa | 0 mm | - | - | - |
| 1777834510 | 13.33° C | 72% | 992.4 hPa | 0 mm | - | - | - |
| 1777834210 | 12.78° C | 75% | 992.4 hPa | 0 mm | - | - | - |
| 1777833915 | 12.22° C | 76% | 992.4 hPa | 0 mm | - | - | - |
* Rain latest hour (hover to see other rain measurements)
** Current wind speed in m/s (hover to see current wind gust speed)